RH
82 83 83 84 85 84 84 85 85 85 85 86 84 83 82 81 76 94 97 96 94 96 87 79 77 80 84 92 94 75 81 80 94 97 95 89 93 58 57 41 47 70 80 94 92 98 89 40 47 78 61 70 71 69
84 85 85 84 84 84 85 85 85 86 87 87 85 86 84 81 80 83 98 96 95 98 90 84 78 66 66 63 87 88 82 77 86 97 98 98 85 95 86 92 53 83 74 84 77 64 58 62 78 75 73 65 65 63
84 83 82 82 83 84 84 85 86 86 85 84 83 82 80 79 77 83 99 99 99 100 99 97 89 76 77 66 68 91 91 76 84 88 94 94 99 89 88 67 60 46 42 68 60 53 51 52 52 56 56 61 67 66
79 81 83 84 83 84 84 85 86 85 85 83 81 83 83 79 77 85 98 98 99 100 99 86 65 80 71 75 82 74 73 82 86 95 97 97 95 79 73 62 67 61 69 73 74 62 59 57 55 52 59 65 73 73
82 83 84 84 83 84 87 87 86 86 81 76 78 81 80 79 79 95 98 98 96 99 99 95 80 56 55 77 84 88 90 90 95 99 98 94 92 91 92 82 82 63 70 82 82 60 66 55 55 57 63 68 60 52
83 85 85 84 85 85 88 88 87 85 83 77 80 81 80 76 85 94 96 93 97 94 99 99 78 80 71 68 68 76 90 94 95 99 97 96 85 89 98 83 52 46 45 48 62 55 60 60 58 64 68 68 54 64
84 84 84 85 86 86 88 87 86 86 79 80 82 80 77 84 91 90 87 84 92 96 99 98 97 80 76 83 86 90 82 88 94 96 96 84 86 99 98 90 51 48 54 54 55 62 65 65 63 59 59 52 76 86
84 83 84 85 85 86 87 87 85 80 78 81 81 80 79 79 79 89 89 89 90 98 95 97 94 90 79 96 95 97 98 94 99 95 98 95 80 98 94 60 50 50 50 52 50 51 51 48 50 51 53 60 70 90
84 84 85 85 83 82 87 86 83 80 81 80 77 79 88 93 96 87 77 81 97 88 99 95 91 95 88 96 98 98 95 94 87 98 88 95 94 95 72 60 54 52 58 52 48 53 54 60 60 62 65 79 94 86
83 84 86 86 85 87 85 85 84 80 81 77 78 90 91 88 76 84 88 99 98 99 99 94 97 97 92 96 92 98 99 96 89 89 96 99 77 57 52 51 52 54 55 56 62 62 59 64 75 76 76 91 90 81
83 84 85 85 88 83 84 85 82 80 73 90 97 93 84 75 96 98 99 99 97 98 97 87 84 88 87 94 92 95 94 96 98 88 97 94 88 80 91 94 79 78 79 88 88 83 77 88 87 83 94 94 83 82
80 83 84 87 85 84 83 81 82 80 84 79 80 87 94 95 93 99 97 93 97 89 92 97 94 96 97 98 98 98 97 97 92 90 98 95 92 96 90 76 73 70 73 83 84 94 95 91 91 82 92 93 86 84
83 84 84 87 84 83 80 82 73 68 79 88 88 92 88 96 100 98 98 96 97 98 97 99 98 99 99 99 98 98 98 94 94 98 92 97 82 79 79 77 69 74 94 97 96 96 92 93 88 92 94 92 94 97
85 83 84 85 84 81 81 80 77 77 84 93 94 98 91 97 95 88 87 92 92 99 96 97 98 99 99 98 97 98 87 94 97 97 95 95 80 86 82 76 78 94 98 97 97 95 95 95 97 93 92 95 96 97
85 84 84 84 83 80 81 77 77 88 92 95 97 89 98 90 95 95 95 95 87 90 89 98 99 99 99 98 98 96 98 96 96 97 98 91 82 88 83 82 82 94 97 96 97 99 99 97 96 99 97 98 97 96
84 84 89 83 83 78 80 80 86 89 96 95 86 92 93 94 96 97 96 94 85 94 98 99 99 98 98 98 98 96 96 95 98 99 97 92 88 88 87 86 88 96 98 98 98 98 98 98 97 98 97 96 95 91
81 96 85 87 80 80 77 84 86 87 94 92 98 98 97 98 97 94 96 94 92 99 99 99 95 96 95 97 95 97 98 98 98 98 97 94 94 93 92 93 93 98 97 96 96 96 97 96 95 93 97 98 95 94
89 90 85 84 84 78 86 83 92 93 96 96 100 95 99 98 98 96 96 99 99 99 99 96 97 92 94 95 94 98 95 91 96 95 94 97 92 94 93 97 94 98 98 96 97 97 97 97 95 97 96 96 96 96
87 89 83 76 74 80 85 88 87 95 91 96 96 98 96 95 93 84 97 98 98 99 100 98 98 96 98 98 98 94 92 98 98 95 95 94 94 93 95 96 95 98 98 97 94 96 98 95 94 97 96 93 94 96
87 81 78 80 78 90 94 95 94 95 97 93 99 100 98 96 98 99 96 92 95 97 99 96 97 98 99 99 98 97 97 98 98 95 91 92 94 91 92 97 99 98 97 97 96 97 98 98 98 97 95 93 93 96
84 88 82 82 88 93 94 92 96 97 95 98 97 99 99 98 100 100 97 97 100 99 97 97 98 98 96 95 97 97 93 96 98 98 97 96 93 96 96 96 98 99 98 97 98 100 99 98 99 97 96 97 98 97
96 78 92 83 88 92 94 95 97 96 99 96 94 98 98 99 98 98 95 99 96 88 99 98 99 99 97 91 90 95 97 95 92 89 94 96 97 95 94 96 99 98 99 98 97 98 98 98 98 97 96 98 97 96
83 85 94 90 97 96 91 96 98 97 98 97 96 98 97 99 97 96 100 97 97 99 99 99 95 94 95 92 94 93 94 86 88 83 88 92 96 95 96 97 98 98 98 98 97 98 98 99 99 97 97 97 96 97
88 95 99 96 97 97 92 98 98 99 99 93 98 98 92 95 93 100 98 98 98 99 96 95 98 98 95 89 95 88 88 94 83 82 79 88 91 92 96 96 98 98 98 98 98 98 98 99 99 97 96 96 96 95
99 99 99 99 96 98 98 99 99 95 98 99 100 99 91 98 100 100 94 93 100 98 96 95 95 94 98 97 97 97 92 90 85 85 84 77 85 93 89 86 95 98 98 98 98 98 99 99 98 96 95 94 96 95
96 90 98 96 98 97 96 100 99 93 98 97 96 93 97 99 100 93 92 98 99 97 96 94 94 98 98 96 92 95 89 88 83 84 83 88 91 97 98 95 93 90 98 98 98 97 97 96 96 96 97 96 94 94
99 96 88 82 83 88 97 96 89 98 99 98 93 96 98 100 98 91 98 99 98 97 92 95 97 97 95 90 88 91 94 94 89 87 84 85 85 92 98 98 98 95 97 98 98 98 97 96 96 96 96 97 96 93
96 93 96 92 97 95 97 99 98 96 91 91 95 97 87 91 91 97 98 98 98 98 99 99 95 86 85 94 94 94 96 90 87 86 89 90 93 95 96 97 97 95 98 98 98 99 98 97 97 96 96 96 96 96
99 91 90 95 97 97 98 95 94 89 92 94 93 91 95 91 95 95 92 98 98 98 98 97 96 96 94 93 95 97 96 96 99 99 97 93 90 87 91 91 94 94 96 98 97 99 98 98 97 97 96 96 96 96
90 93 98 99 98 92 86 88 76 78 84 77 88 87 87 86 91 96 96 96 97 100 100 100 100 100 100 100 96 92 92 97 98 98 96 94 91 87 90 93 91 93 95 98 98 98 98 98 98 98 97 97 97 96
94 96 94 92 91 83 78 94 97 98 99 92 84 88 83 88 99 100 98 97 98 98 98 100 99 100 100 97 100 100 94 96 100 92 92 94 94 94 94 93 93 96 97 98 98 98 97 97 97 96 96 96 96 95
98 94 98 99 85 82 96 100 96 99 85 82 76 77 96 99 100 98 98 97 97 100 100 100 100 93 95 98 98 98 94 94 93 93 92 93 92 92 92 94 94 96 97 98 98 98 97 97 96 96 96 96 96 96
97 100 98 98 94 90 92 99 98 98 99 99 94 99 99 95 94 98 96 98 98 99 100 98 95 96 97 97 97 93 97 91 88 91 92 92 93 95 95 95 96 97 98 98 98 97 97 97 96 96 96 96 96 96
Wind_Speed
11 11 12 11 11 10 9 8 7 7 7 7 8 10 12 13 15 6 3 6 5 3 4 7 6 6 2 3 4 3 4 3 3 1 4 5 5 5 8 16 11 8 6 5 2 2 10 12 9 11 8 3 5 7
12 12 11 10 9 8 8 8 7 7 7 7 8 9 10 12 13 13 4 4 4 3 6 3 6 13 11 12 5 4 5 3 4 2 2 1 4 2 3 4 3 4 9 5 7 9 9 5 7 9 12 15 11 11
11 10 9 8 7 7 7 7 8 7 7 8 9 11 12 13 14 11 2 2 1 1 3 5 11 13 9 14 9 6 3 6 6 5 4 4 7 4 6 10 10 13 16 10 17 20 21 22 21 20 19 15 8 11
8 8 7 7 7 6 6 7 7 7 6 5 7 8 9 10 10 10 3 5 2 1 3 7 2 5 7 12 14 14 17 3 2 3 5 6 5 6 7 11 14 11 4 8 15 26 16 19 16 14 11 7 7 8
7 7 7 7 7 6 7 7 7 6 5 6 8 8 8 6 6 5 2 4 4 2 3 5 7 15 16 9 14 13 13 11 6 5 5 7 4 4 4 7 20 12 22 11 20 17 13 12 9 6 8 8 9 14
8 7 7 8 7 7 7 8 7 6 6 7 8 7 7 8 13 4 3 1 4 3 2 5 5 6 4 7 13 14 13 8 6 4 4 6 4 6 5 12 31 14 21 24 24 23 16 14 12 8 11 8 13 12
9 9 8 8 8 8 8 8 7 6 6 7 7 8 8 14 4 4 6 4 7 4 1 4 5 4 3 3 2 2 8 6 5 4 6 9 8 6 4 13 27 14 9 13 16 9 13 10 10 7 7 13 10 9
11 10 9 9 8 9 9 9 7 6 6 8 8 7 9 9 4 2 3 9 7 3 2 4 6 6 2 3 2 1 3 4 5 4 1 4 4 4 10 22 23 11 13 13 17 16 19 20 16 14 12 9 9 8
12 11 9 8 8 9 9 8 7 7 10 11 13 12 5 3 1 4 4 10 2 4 3 3 3 5 3 2 2 3 2 5 3 5 5 4 5 10 15 11 16 11 8 14 14 12 13 14 14 12 11 8 6 5
13 11 9 9 8 9 8 7 9 12 15 16 6 5 4 4 4 3 3 2 3 4 4 5 3 5 3 2 4 2 2 4 4 6 3 5 10 16 15 15 14 18 16 14 13 15 14 14 16 13 12 6 6 6
15 13 11 9 10 9 7 13 15 18 9 3 2 2 3 3 2 2 1 3 2 4 4 4 8 8 4 4 4 4 3 3 4 4 5 4 4 3 6 10 8 10 12 14 14 15 15 12 11 8 5 6 7 9
16 14 12 12 11 9 13 16 20 5 4 5 4 2 1 1 1 2 3 3 5 4 3 4 5 5 4 5 5 4 4 2 7 3 4 4 2 9 8 10 12 13 14 17 13 16 16 18 13 10 7 7 8 9
15 14 14 13 11 15 16 18 12 8 7 3 4 4 1 2 1 4 4 4 3 3 3 4 6 3 4 4 4 4 5 6 1 4 3 2 8 4 6 9 15 14 14 15 17 17 15 11 8 8 8 7 10 10
15 15 15 15 12 16 15 18 10 5 4 3 3 3 4 4 6 6 5 3 5 5 8 9 7 4 4 5 3 5 5 2 4 3 1 2 8 11 8 9 12 15 15 14 12 9 4 8 7 7 9 10 10 9
16 15 15 13 13 17 18 13 8 3 3 2 2 5 7 6 4 4 3 3 5 5 8 8 5 3 3 3 3 3 3 4 3 2 1 5 5 8 9 10 12 12 12 11 9 5 5 7 10 9 6 8 9 9
17 14 2 10 17 19 19 8 4 2 2 2 5 5 3 4 5 3 3 6 3 3 4 3 4 3 4 3 4 4 3 2 3 2 4 5 8 8 9 8 11 9 8 8 7 6 4 5 6 8 7 6 7 10
8 1 15 20 19 12 13 3 2 0 3 3 5 2 3 3 7 5 3 4 2 2 3 2 4 3 5 4 2 0 1 5 8 6 3 4 9 10 8 9 9 8 8 7 6 5 3 4 5 7 8 2 6 6
3 11 22 20 13 7 2 2 2 2 5 4 2 4 3 4 3 5 4 2 2 2 2 2 2 3 4 4 4 3 6 8 5 4 5 7 8 7 7 8 10 6 6 5 3 3 2 2 5 3 7 6 7 7
11 11 20 16 6 4 4 2 3 3 6 3 4 3 4 4 6 7 2 3 3 3 2 2 3 3 3 2 5 9 10 8 7 7 6 6 6 7 7 7 6 4 5 3 2 1 1 2 2 3 5 5 6 5
18 17 12 5 3 2 1 3 1 3 4 5 2 3 3 4 2 3 4 3 2 2 3 3 3 2 2 2 5 7 8 7 6 8 8 5 4 7 9 7 5 4 3 3 2 1 1 2 2 3 3 4 7 7
9 2 6 4 3 2 2 3 4 5 4 3 3 2 4 3 3 2 2 2 2 2 1 1 2 3 3 5 4 5 8 6 7 5 8 8 6 6 7 5 4 2 1 2 2 3 2 1 1 3 4 3 3 5
2 6 2 2 2 2 3 4 3 2 3 4 3 2 4 3 4 3 2 2 3 3 2 2 3 2 3 5 5 5 7 8 8 8 8 7 6 6 6 5 3 4 3 4 4 4 3 2 3 4 5 4 5 6
7 3 1 1 1 3 7 1 4 4 4 4 1 3 4 3 4 0 2 3 1 2 2 3 4 4 5 6 4 5 5 7 8 9 9 8 7 7 6 6 4 4 4 3 3 3 4 4 4 5 5 5 6 5
4 4 4 4 7 5 2 3 3 3 2 3 3 4 4 4 2 0 4 3 3 2 1 2 2 3 3 4 3 5 7 4 7 8 9 10 9 9 6 7 5 4 5 2 3 3 3 4 5 5 6 7 6 7
3 5 3 5 3 3 2 3 3 2 4 4 2 5 5 2 1 3 6 4 3 2 2 2 3 3 3 4 4 4 5 5 8 12 10 9 10 8 9 8 6 5 3 3 4 4 4 5 5 7 8 8 9 10
4 5 7 5 3 3 4 3 4 6 2 3 5 4 2 1 1 8 4 3 3 3 3 3 4 3 3 4 7 5 5 4 7 10 11 6 8 9 10 11 10 8 4 6 6 7 8 8 9 11 10 10 11 11
5 6 4 3 2 2 3 3 3 2 3 5 4 3 0 3 6 5 2 2 2 2 2 2 3 4 6 7 6 6 6 6 8 9 11 11 11 9 9 10 10 7 4 7 8 9 11 12 11 13 11 10 11 11
5 2 4 3 1 1 3 2 2 5 5 2 1 3 4 4 4 2 0 2 2 2 2 1 3 5 5 5 6 6 6 6 9 10 7 7 6 6 7 7 8 13 9 8 9 9 10 11 12 13 13 12 10 9
3 2 2 3 2 2 5 5 5 4 2 1 8 9 5 3 2 2 1 1 2 1 3 4 4 4 3 4 4 3 4 5 5 8 9 10 10 8 5 9 8 8 7 7 9 10 11 10 11 12 13 11 10 10
4 1 1 1 3 5 6 4 8 8 5 8 6 8 9 8 4 2 2 2 3 2 1 2 3 2 3 3 7 12 4 3 3 2 7 10 10 12 12 12 12 10 8 7 6 4 6 5 7 7 8 8 8 8
2 2 2 3 5 6 9 5 4 2 2 4 7 8 12 4 1 2 2 2 2 2 3 4 3 3 2 4 2 6 11 4 3 9 10 10 11 11 11 12 12 10 8 7 5 6 6 7 8 9 9 10 11 11
3 1 1 4 8 7 4 3 3 3 6 8 12 7 2 2 2 1 0 2 3 3 3 2 3 6 4 4 4 5 11 11 12 11 16 12 12 13 14 11 11 9 8 8 6 7 10 10 8 9 10 12 12 11
2 2 3 3 6 6 4 3 5 6 4 4 5 2 2 2 3 2 0 1 3 3 2 4 6 5 6 7 7 8 8 9 15 19 19 19 19 16 12 9 9 9 9 7 6 7 11 12 11 11 11 11 11 11
Wind_Direction
152 150 151 152 152 154 163 168 170 174 180 196 215 221 221 212 205 155 219 183 159 207 254 197 198 203 199 150 173 241 12 301 35 130 154 230 228 236 240 243 252 201 182 211 210 194 268 247 269 209 235 249 247 256
149 148 149 155 166 172 177 183 190 196 203 213 226 227 229 228 222 189 232 177 190 189 239 233 238 238 212 217 163 217 204 182 213 115 247 241 251 268 245 261 275 242 187 197 186 235 241 243 220 253 281 280 278 274
151 156 165 176 180 190 198 201 203 210 221 231 237 238 241 243 237 202 131 98 133 278 285 246 249 238 228 225 199 213 232 194 223 188 194 230 238 157 245 254 259 266 262 243 264 254 258 262 267 267 271 265 267 281
159 169 176 183 190 195 204 204 199 202 216 239 256 254 253 251 244 172 155 164 204 328 260 271 290 251 222 210 207 213 236 231 183 154 230 227 229 199 245 252 245 236 291 254 273 262 267 260 253 264 265 274 280 275
178 186 192 200 202 202 195 193 200 202 221 260 265 254 243 221 188 117 126 187 160 192 241 284 290 266 243 201 209 211 219 223 225 223 225 240 223 221 235 257 256 214 249 236 253 258 244 260 266 261 274 264 294 301
198 199 203 201 200 205 210 203 200 207 230 276 255 217 171 151 121 86 359 303 172 148 334 308 277 279 247 201 213 213 205 204 210 220 230 227 240 199 234 251 260 254 239 235 248 256 251 249 263 252 259 275 284 287
200 202 207 202 210 215 210 201 204 218 254 267 178 164 158 146 103 133 185 225 158 105 243 299 277 276 279 246 222 171 184 200 205 232 228 252 248 227 248 261 260 258 249 239 239 255 272 238 258 235 245 271 264 258
203 203 204 209 221 220 211 199 198 220 258 161 152 142 144 138 50 338 246 141 135 118 177 264 271 335 343 292 311 145 146 195 213 230 222 236 238 208 244 251 274 244 255 253 250 242 252 268 276 274 269 269 263 240
199 198 200 216 218 213 187 191 207 225 158 140 117 100 73 54 143 239 268 185 53 132 201 234 245 262 356 287 272 344 216 234 244 227 218 191 201 227 237 282 283 277 229 256 259 246 249 252 260 259 264 270 230 202
193 194 199 205 194 182 182 206 160 148 138 116 61 61 339 225 231 131 25 135 217 187 219 242 156 258 77 358 301 329 212 227 257 232 139 228 248 257 268 271 284 294 296 284 270 271 260 263 262 249 244 221 194 180
190 192 195 196 181 180 199 157 154 136 98 56 94 192 235 270 76 49 236 229 212 246 218 230 202 237 224 200 220 198 247 245 255 241 196 245 261 271 346 304 281 291 293 282 273 274 270 239 244 255 210 185 154 151
195 192 188 179 170 170 149 152 145 110 163 177 158 118 60 56 227 234 231 235 223 243 211 215 225 214 238 200 201 196 236 193 253 153 230 239 271 256 265 301 309 305 297 290 279 282 272 246 226 226 192 157 145 136
188 185 176 170 163 155 158 163 152 123 113 54 50 48 297 303 318 201 229 229 239 236 237 232 243 231 203 188 200 218 220 232 252 234 231 45 282 298 307 316 320 313 310 300 296 288 258 224 169 157 137 121 131 131
176 173 166 163 161 163 163 160 139 107 77 96 111 302 214 266 240 210 219 217 214 220 260 260 256 234 200 178 219 226 224 264 271 264 277 284 304 317 315 317 319 317 322 320 323 329 136 134 120 113 129 134 129 130
163 158 157 160 164 158 160 134 114 67 101 134 174 238 224 237 268 257 258 294 264 254 283 288 247 224 196 230 207 245 234 235 238 283 270 265 298 297 315 321 325 326 332 333 336 11 18 120 125 106 111 119 114 123
139 124 149 164 165 162 156 88 45 74 44 168 230 246 263 277 285 300 248 254 254 257 275 262 292 279 226 227 213 218 262 295 348 286 269 312 317 311 312 319 322 323 330 335 345 358 57 51 105 110 88 90 117 137
123 70 144 129 138 156 130 85 65 253 206 238 251 220 188 230 248 258 217 241 233 271 256 288 289 294 293 281 276 185 274 329 317 310 307 311 315 318 314 314 321 326 338 349 346 7 35 74 92 108 117 102 107 100
66 137 140 150 146 101 39 62 132 220 254 245 228 247 213 221 249 256 248 221 184 251 252 236 306 283 285 289 313 338 327 323 302 290 305 314 315 317 319 316 324 328 338 350 349 346 58 106 127 104 113 123 104 102
134 134 136 138 122 106 137 247 143 249 242 238 254 221 230 243 233 250 270 279 225 214 261 244 250 236 256 318 326 329 329 323 318 320 306 299 310 318 315 301 304 314 340 341 332 87 94 52 111 123 131 136 130 136
126 130 119 97 90 84 81 290 163 256 268 243 252 258 229 234 272 271 273 283 251 221 215 229 237 265 327 313 324 311 312 309 312 322 322 318 311 328 321 311 306 323 332 325 347 107 105 84 66 120 133 139 144 154
79 63 58 69 29 97 193 230 220 222 253 247 251 240 265 317 286 279 268 205 210 231 260 251 287 271 293 292 286 310 310 308 312 303 305 312 315 299 301 298 285 272 252 272 262 280 263 208 147 134 133 122 108 115
154 116 81 22 76 296 264 216 242 294 252 246 273 228 272 289 277 244 223 195 222 226 157 185 250 264 298 311 312 305 298 309 307 306 289 288 301 309 311 301 278 257 225 224 229 220 225 197 148 143 142 146 128 135
105 94 70 128 66 253 261 47 242 222 246 258 279 265 274 262 233 51 273 241 231 192 183 207 241 248 259 275 282 282 282 327 322 321 318 315 298 290 288 287 259 257 259 248 204 199 201 171 161 145 134 137 136 133
51 130 170 209 182 254 308 262 255 270 281 255 246 262 263 233 317 208 249 247 230 143 159 240 253 301 305 275 290 323 329 303 317 315 322 317 313 310 298 292 272 238 228 232 193 194 166 168 153 157 157 154 155 155
217 223 211 249 269 227 223 255 264 260 260 251 266 279 266 22 260 257 233 251 149 152 246 257 258 235 247 259 268 259 270 295 320 315 310 313 306 300 301 302 278 249 202 188 195 191 176 157 169 174 171 170 167 166
226 230 193 211 255 187 212 242 229 227 238 274 248 267 12 50 293 259 236 182 166 192 234 250 266 273 264 237 282 287 298 295 307 301 298 295 298 295 295 298 301 302 209 218 203 195 189 186 184 185 186 180 174 166
241 263 222 218 241 252 298 265 253 190 254 241 248 309 300 261 250 258 285 217 138 214 256 283 289 284 299 314 314 308 311 313 302 294 297 295 290 283 280 281 288 295 258 225 220 211 201 191 190 189 188 183 181 176
229 234 198 243 255 227 224 303 246 229 239 262 53 299 259 234 259 216 215 16 314 304 290 281 60 21 330 314 310 309 306 314 308 294 282 279 265 270 280 283 279 286 283 260 244 225 213 202 195 188 181 177 170 171
264 280 98 293 304 269 225 217 236 241 236 282 278 271 250 247 237 240 264 308 290 14 34 5 331 338 312 306 278 278 281 297 342 329 326 319 320 309 338 322 294 290 290 274 259 236 216 200 189 184 179 172 163 157
274 143 158 198 194 251 243 197 280 282 266 273 261 269 273 278 285 38 30 25 49 61 255 246 289 10 300 324 315 321 316 247 199 221 316 301 296 303 304 299 298 296 288 267 253 224 174 169 153 150 148 142 146 147
329 14 259 231 269 274 277 296 274 263 251 254 264 261 266 269 88 26 63 55 87 54 32 343 301 261 260 322 314 319 315 311 295 291 285 283 281 283 284 282 286 286 281 266 219 193 174 166 162 156 154 151 153 147
340 269 295 276 295 292 11 38 259 255 280 283 284 275 326 89 222 333 46 92 50 30 299 274 313 315 286 256 249 240 252 279 294 298 303 298 297 295 295 284 277 276 269 255 217 192 179 167 159 158 155 153 148 142
283 327 277 322 332 326 287 22 285 298 310 279 279 237 234 175 155 209 184 187 176 193 279 293 286 278 266 271 267 280 278 280 296 297 295 291 293 293 295 304 304 288 265 245 216 185 175 163 154 147 146 144 135 128